| time (UTC) | temp C | wind direction | speed KPH | gust KPH | rain 1hr cm | rain 24hr cm | rain mn cm | humidity % | barometer mb |
| 20260831185349 | 27 | 171 | 0.0 | 0.0 | 0.00 | 0.00 | 0.00 | 81 | 1019.2 |
| 20260831184843 | 27 | 171 | 0.0 | 0.0 | 0.00 | 0.00 | 0.00 | 81 | 1019.3 |
| 20260831184532 | 27 | 171 | 0.0 | 0.0 | 0.00 | 0.00 | 0.00 | 80 | 1018.1 |
| 20260831184415 | 27 | 171 | 0.0 | 0.0 | 0.00 | 0.00 | 0.00 | 81 | 1019.3 |
| 20260831183412 | 25 | 171 | 0.0 | 1.6 | 0.00 | 0.00 | 0.00 | 90 | 1019.4 |
| 20260831183004 | 25 | 171 | 0.0 | 1.6 | 0.00 | 0.00 | 0.00 | 89 | 1018.2 |
| 20260831182904 | 25 | 171 | 0.0 | 1.6 | 0.00 | 0.00 | 0.00 | 89 | 1019.4 |
| 20260831182356 | 25 | 171 | 0.0 | 0.0 | 0.00 | 0.00 | 0.00 | 88 | 1019.5 |
| 20260831181849 | 25 | 171 | 0.0 | 0.0 | 0.00 | 0.00 | 0.00 | 89 | 1019.6 |
| 20260831181641 | 25 | 171 | 0.0 | 0.0 | 0.00 | 0.00 | 0.00 | 89 | 1018.5 |
| 20260831181340 | 25 | 171 | 0.0 | 0.0 | 0.00 | 0.00 | 0.00 | 88 | 1019.8 |
| 20260831180854 | 25 | 171 | 0.0 | 0.0 | 0.00 | 0.00 | 0.00 | 86 | 1019.6 |
| 20260831180407 | 25 | 171 | 0.0 | 0.0 | 0.00 | 0.00 | 0.00 | 87 | 1019.6 |
| 20260831180056 | 25 | 171 | 0.0 | 0.0 | 0.00 | 0.00 | 0.00 | 87 | 1018.4 |
| 20260831175855 | 25 | 171 | 0.0 | 0.0 | 0.00 | 0.00 | 0.00 | 87 | 1019.5 |
| 20260831175407 | 25 | 171 | 0.0 | 0.0 | 0.00 | 0.00 | 0.00 | 87 | 1019.6 |
| 20260831174859 | 25 | 171 | 0.0 | 0.0 | 0.00 | 0.00 | 0.00 | 87 | 1019.6 |
| 20260831174510 | 25 | 171 | 0.0 | 0.0 | 0.00 | 0.00 | 0.00 | 87 | 1018.4 |
| 20260831174409 | 25 | 171 | 0.0 | 0.0 | 0.00 | 0.00 | 0.00 | 87 | 1019.6 |
| 20260831173859 | 25 | 171 | 0.0 | 0.0 | 0.00 | 0.00 | 0.00 | 89 | 1019.5 |
| 20260831173350 | 25 | 171 | 0.0 | 0.0 | 0.00 | 0.00 | 0.00 | 88 | 1019.5 |
| 20260831173045 | 25 | 171 | 0.0 | 0.0 | 0.00 | 0.00 | 0.00 | 87 | 1018.3 |
| 20260831172844 | 25 | 171 | 0.0 | 0.0 | 0.00 | 0.00 | 0.00 | 86 | 1019.5 |
| 20260831172337 | 25 | 171 | 0.0 | 0.0 | 0.00 | 0.00 | 0.00 | 86 | 1019.5 |
| 20260831171929 | 25 | 171 | 0.0 | 0.0 | 0.00 | 0.00 | 0.00 | 85 | 1019.5 |
| 20260831171543 | 25 | 171 | 0.0 | 0.0 | 0.00 | 0.00 | 0.00 | 84 | 1018.3 |
| 20260831171337 | 25 | 171 | 0.0 | 0.0 | 0.00 | 0.00 | 0.00 | 83 | 1019.6 |
| 20260831170850 | 25 | 171 | 0.0 | 0.0 | 0.00 | 0.00 | 0.00 | 83 | 1019.6 |
| 20260831170445 | 25 | 171 | 0.0 | 0.0 | 0.00 | 0.00 | 0.00 | 84 | 1019.7 |
| 20260831170013 | 25 | 171 | 0.0 | 0.0 | 0.00 | 0.00 | 0.00 | 85 | 1018.5 |
| 20260831165910 | 25 | 171 | 0.0 | 0.0 | 0.00 | 0.00 | 0.00 | 84 | 1019.8 |
| 20260831165341 | 25 | 171 | 0.0 | 0.0 | 0.00 | 0.00 | 0.00 | 84 | 1019.8 |
| 20260831164854 | 25 | 171 | 0.0 | 0.0 | 0.00 | 0.00 | 0.00 | 84 | 1019.9 |
| 20260831164547 | 25 | 171 | 0.0 | 0.0 | 0.00 | 0.00 | 0.00 | 82 | 1018.7 |
| 20260831164346 | 25 | 171 | 0.0 | 0.0 | 0.00 | 0.00 | 0.00 | 82 | 1019.9 |
| 20260831163838 | 25 | 171 | 0.0 | 0.0 | 0.00 | 0.00 | 0.00 | 80 | 1019.9 |
| 20260831163351 | 26 | 171 | 0.0 | 0.0 | 0.00 | 0.00 | 0.00 | 79 | 1019.9 |
| 20260831163045 | 26 | 171 | 0.0 | 1.6 | 0.00 | 0.00 | 0.00 | 77 | 1018.7 |
| 20260831162844 | 26 | 171 | 0.0 | 3.2 | 0.00 | 0.00 | 0.00 | 76 | 1019.9 |
| 20260831162342 | 26 | 171 | 1.6 | 4.8 | 0.00 | 0.00 | 0.00 | 74 | 1020.0 |
| 20260831161854 | 26 | 118 | 0.0 | 3.2 | 0.00 | 0.00 | 0.00 | 74 | 1020.1 |
| 20260831161555 | 26 | 219 | 0.0 | 3.2 | 0.00 | 0.00 | 0.00 | 73 | 1018.8 |
| 20260831161347 | 26 | 219 | 0.0 | 3.2 | 0.00 | 0.00 | 0.00 | 73 | 1020.0 |
| 20260831160900 | 26 | 223 | 0.0 | 0.0 | 0.00 | 0.00 | 0.00 | 73 | 1019.8 |
| 20260831160351 | 26 | 153 | 0.0 | 0.0 | 0.00 | 0.00 | 0.00 | 72 | 1019.8 |
| 20260831160041 | 26 | 153 | 0.0 | 3.2 | 0.00 | 0.00 | 0.00 | 72 | 1018.7 |
| 20260831155841 | 26 | 153 | 0.0 | 3.2 | 0.00 | 0.00 | 0.00 | 71 | 1019.9 |
| 20260831154838 | 26 | 94 | 0.0 | 1.6 | 0.00 | 0.00 | 0.00 | 74 | 1020.0 |
| 20260831154600 | 26 | 94 | 0.0 | 1.6 | 0.00 | 0.00 | 0.00 | 75 | 1018.8 |
| 20260831154351 | 26 | 94 | 1.6 | 1.6 | 0.00 | 0.00 | 0.00 | 75 | 1020.1 |
| 20260831153844 | 26 | 227 | 0.0 | 0.0 | 0.00 | 0.00 | 0.00 | 78 | 1020.1 |
| 20260831153417 | 25 | 227 | 0.0 | 0.0 | 0.00 | 0.00 | 0.00 | 78 | 1020.2 |
| 20260831153047 | 25 | 227 | 0.0 | 0.0 | 0.00 | 0.00 | 0.00 | 78 | 1018.9 |
| 20260831152847 | 25 | 227 | 0.0 | 0.0 | 0.00 | 0.00 | 0.00 | 78 | 1020.1 |
| 20260831152339 | 25 | 227 | 0.0 | 0.0 | 0.00 | 0.00 | 0.00 | 78 | 1020.2 |
| 20260831151853 | 25 | 227 | 0.0 | 0.0 | 0.00 | 0.00 | 0.00 | 79 | 1020.2 |
| 20260831151558 | 25 | 227 | 0.0 | 0.0 | 0.00 | 0.00 | 0.00 | 80 | 1019.0 |
| 20260831150055 | 24 | 176 | 0.0 | 0.0 | 0.00 | 0.00 | 0.00 | 83 | 1019.3 |
| 20260831144553 | 23 | 176 | 0.0 | 0.0 | 0.00 | 0.00 | 0.00 | 85 | 1019.3 |
| 20260831143049 | 23 | 176 | 0.0 | 0.0 | 0.00 | 0.00 | 0.00 | 86 | 1019.2 |
| 20260831141544 | 22 | 176 | 0.0 | 0.0 | 0.00 | 0.00 | 0.00 | 85 | 1019.1 |
| 20260831140041 | 22 | 175 | 0.0 | 0.0 | 0.00 | 0.00 | 0.00 | 87 | 1019.0 |
| 20260831134537 | 22 | 227 | 0.0 | 0.0 | 0.00 | 0.00 | 0.00 | 87 | 1019.2 |
| 20260831133035 | 21 | 132 | 0.0 | 0.0 | 0.00 | 0.00 | 0.00 | 89 | 1019.3 |
| 20260831131531 | 21 | 132 | 0.0 | 0.0 | 0.00 | 0.00 | 0.00 | 90 | 1019.3 |
| 20260831130029 | 20 | 233 | 0.0 | 0.0 | 0.00 | 0.00 | 0.00 | 93 | 1019.4 |
| 20260831124529 | 19 | 233 | 0.0 | 0.0 | 0.00 | 0.00 | 0.00 | 94 | 1019.2 |
| 20260831123027 | 19 | 233 | 0.0 | 0.0 | 0.00 | 0.00 | 0.00 | 94 | 1019.1 |
| 20260831121527 | 19 | 233 | 0.0 | 0.0 | 0.00 | 0.00 | 0.00 | 94 | 1019.3 |
| 20260831120030 | 19 | 233 | 0.0 | 0.0 | 0.00 | 0.00 | 0.00 | 94 | 1019.1 |
| 20260831114524 | 19 | 233 | 0.0 | 0.0 | 0.00 | 0.00 | 0.00 | 94 | 1019.2 |
| 20260831113023 | 18 | 233 | 0.0 | 0.0 | 0.00 | 0.00 | 0.00 | 94 | 1019.0 |
| 20260831111529 | 18 | 233 | 0.0 | 0.0 | 0.00 | 0.00 | 0.00 | 94 | 1018.8 |
| 20260831110021 | 19 | 233 | 0.0 | 0.0 | 0.00 | 0.00 | 0.00 | 94 | 1018.9 |
| 20260831104530 | 19 | 233 | 0.0 | 0.0 | 0.00 | 0.00 | 0.00 | 93 | 1018.6 |
| 20260831103037 | 19 | 233 | 0.0 | 0.0 | 0.00 | 0.00 | 0.00 | 94 | 1018.5 |
| 20260831101516 | 19 | 233 | 0.0 | 0.0 | 0.00 | 0.00 | 0.00 | 94 | 1018.6 |
| 20260831100024 | 19 | 233 | 0.0 | 0.0 | 0.00 | 0.00 | 0.00 | 94 | 1018.4 |
| 20260831094525 | 19 | 233 | 0.0 | 0.0 | 0.00 | 0.00 | 0.00 | 93 | 1018.2 |
| 20260831093012 | 19 | 233 | 0.0 | 0.0 | 0.00 | 0.00 | 0.00 | 93 | 1018.1 |
| 20260831091511 | 20 | 233 | 0.0 | 0.0 | 0.00 | 0.00 | 0.00 | 94 | 1018.2 |
| 20260831090011 | 20 | 233 | 0.0 | 0.0 | 0.00 | 0.00 | 0.00 | 94 | 1018.1 |
| 20260831084511 | 20 | 233 | 0.0 | 0.0 | 0.00 | 0.00 | 0.00 | 94 | 1017.8 |
| 20260831083019 | 20 | 233 | 0.0 | 0.0 | 0.00 | 0.00 | 0.00 | 94 | 1018.0 |
| 20260831081508 | 20 | 233 | 0.0 | 0.0 | 0.00 | 0.00 | 0.00 | 93 | 1017.9 |
| 20260831080022 | 20 | 233 | 0.0 | 0.0 | 0.00 | 0.00 | 0.00 | 93 | 1018.0 |
| 20260831074507 | 20 | 233 | 0.0 | 0.0 | 0.00 | 0.00 | 0.00 | 93 | 1018.0 |
| 20260831073018 | 20 | 233 | 0.0 | 0.0 | 0.00 | 0.00 | 0.00 | 93 | 1018.0 |
| 20260831071505 | 20 | 233 | 0.0 | 0.0 | 0.00 | 0.00 | 0.00 | 93 | 1017.7 |
| 20260831070004 | 20 | 233 | 0.0 | 0.0 | 0.00 | 0.00 | 0.00 | 93 | 1017.7 |
| 20260831064503 | 20 | 233 | 0.0 | 0.0 | 0.00 | 0.00 | 0.00 | 93 | 1017.8 |
| 20260831063100 | 20 | 233 | 0.0 | 0.0 | 0.00 | 0.00 | 0.00 | 93 | 1017.9 |
| 20260831061559 | 20 | 233 | 0.0 | 0.0 | 0.00 | 0.00 | 0.00 | 93 | 1018.1 |
| 20260831060056 | 20 | 233 | 0.0 | 0.0 | 0.00 | 0.00 | 0.00 | 93 | 1018.2 |
| 20260831054554 | 20 | 233 | 0.0 | 0.0 | 0.00 | 0.00 | 0.00 | 93 | 1018.2 |
| 20260831053054 | 21 | 233 | 0.0 | 0.0 | 0.00 | 0.00 | 0.00 | 93 | 1018.2 |
| 20260831051552 | 21 | 233 | 0.0 | 0.0 | 0.00 | 0.00 | 0.00 | 93 | 1018.2 |
| 20260831050051 | 21 | 233 | 0.0 | 0.0 | 0.00 | 0.00 | 0.00 | 93 | 1018.2 |
| 20260831045850 | 21 | 233 | 0.0 | 0.0 | 0.00 | 0.00 | 0.00 | 93 | 1019.3 |
| 20260831045342 | 21 | 233 | 0.0 | 0.0 | 0.00 | 0.00 | 0.00 | 93 | 1019.4 |
| 20260831044854 | 21 | 233 | 0.0 | 0.0 | 0.00 | 0.00 | 0.00 | 93 | 1019.4 |
| 20260831044550 | 21 | 233 | 0.0 | 0.0 | 0.00 | 0.00 | 0.00 | 93 | 1018.3 |
| 20260831044347 | 21 | 233 | 0.0 | 0.0 | 0.00 | 0.00 | 0.00 | 93 | 1019.3 |
| 20260831043839 | 21 | 233 | 0.0 | 0.0 | 0.00 | 0.00 | 0.00 | 93 | 1019.4 |
| 20260831043411 | 21 | 233 | 0.0 | 0.0 | 0.00 | 0.00 | 0.00 | 93 | 1019.5 |
| 20260831043043 | 21 | 233 | 0.0 | 0.0 | 0.00 | 0.00 | 0.00 | 93 | 1018.4 |
| 20260831042842 | 21 | 233 | 0.0 | 0.0 | 0.00 | 0.00 | 0.00 | 93 | 1019.5 |
| 20260831042355 | 21 | 233 | 0.0 | 0.0 | 0.00 | 0.00 | 0.00 | 93 | 1019.4 |
| 20260831041848 | 21 | 233 | 0.0 | 0.0 | 0.00 | 0.00 | 0.00 | 93 | 1019.4 |
| 20260831041505 | 21 | 233 | 0.0 | 0.0 | 0.00 | 0.00 | 0.00 | 93 | 1018.3 |
| 20260831041401 | 21 | 233 | 0.0 | 0.0 | 0.00 | 0.00 | 0.00 | 93 | 1019.4 |
| 20260831040914 | 21 | 233 | 0.0 | 0.0 | 0.00 | 0.00 | 0.00 | 93 | 1019.4 |
| 20260831040344 | 21 | 233 | 0.0 | 0.0 | 0.00 | 0.00 | 0.00 | 93 | 1019.4 |
| 20260831040039 | 21 | 233 | 0.0 | 0.0 | 0.00 | 0.00 | 0.00 | 93 | 1018.4 |
| 20260831035838 | 21 | 233 | 0.0 | 0.0 | 0.00 | 0.00 | 0.00 | 93 | 1019.4 |
| 20260831035350 | 21 | 233 | 0.0 | 0.0 | 0.00 | 0.00 | 0.00 | 93 | 1019.4 |
| 20260831034843 | 21 | 233 | 0.0 | 0.0 | 0.00 | 0.00 | 0.00 | 93 | 1019.4 |
| 20260831034516 | 21 | 233 | 0.0 | 0.0 | 0.00 | 0.00 | 0.00 | 93 | 1018.4 |
| 20260831034415 | 21 | 233 | 0.0 | 0.0 | 0.00 | 0.00 | 0.00 | 93 | 1019.6 |
| 20260831033847 | 21 | 233 | 0.0 | 0.0 | 0.00 | 0.00 | 0.00 | 93 | 1019.5 |
| 20260831033340 | 21 | 233 | 0.0 | 0.0 | 0.00 | 0.00 | 0.00 | 93 | 1019.5 |
| 20260831033013 | 21 | 233 | 0.0 | 0.0 | 0.00 | 0.00 | 0.00 | 93 | 1018.4 |
| 20260831032913 | 21 | 233 | 0.0 | 0.0 | 0.00 | 0.00 | 0.00 | 93 | 1019.4 |
| 20260831032345 | 21 | 233 | 0.0 | 0.0 | 0.00 | 0.00 | 0.00 | 93 | 1019.5 |
| 20260831031839 | 21 | 233 | 0.0 | 0.0 | 0.00 | 0.00 | 0.00 | 93 | 1019.5 |
| 20260831031601 | 21 | 233 | 0.0 | 0.0 | 0.00 | 0.00 | 0.00 | 93 | 1018.5 |
| 20260831031352 | 21 | 233 | 0.0 | 0.0 | 0.00 | 0.00 | 0.00 | 93 | 1019.6 |
| 20260831030844 | 21 | 233 | 0.0 | 0.0 | 0.00 | 0.00 | 0.00 | 93 | 1019.6 |
| 20260831030357 | 21 | 233 | 0.0 | 0.0 | 0.00 | 0.00 | 0.00 | 93 | 1019.6 |
| 20260831030045 | 21 | 233 | 0.0 | 0.0 | 0.00 | 0.00 | 0.00 | 93 | 1018.5 |
| 20260831025845 | 22 | 233 | 0.0 | 0.0 | 0.00 | 0.00 | 0.00 | 93 | 1019.6 |
| 20260831025339 | 22 | 233 | 0.0 | 0.0 | 0.00 | 0.00 | 0.00 | 92 | 1019.5 |
| 20260831024852 | 22 | 233 | 0.0 | 0.0 | 0.00 | 0.00 | 0.00 | 92 | 1019.5 |
| 20260831024552 | 21 | 233 | 0.0 | 0.0 | 0.00 | 0.00 | 0.00 | 92 | 1018.5 |
| 20260831024345 | 22 | 233 | 0.0 | 0.0 | 0.00 | 0.00 | 0.00 | 92 | 1019.6 |
| 20260831023858 | 22 | 233 | 0.0 | 0.0 | 0.00 | 0.00 | 0.00 | 92 | 1019.5 |
| 20260831023350 | 22 | 233 | 0.0 | 0.0 | 0.00 | 0.00 | 0.00 | 92 | 1019.5 |
| 20260831023022 | 22 | 233 | 0.0 | 0.0 | 0.00 | 0.00 | 0.00 | 92 | 1018.4 |
| 20260831022922 | 22 | 233 | 0.0 | 0.0 | 0.00 | 0.00 | 0.00 | 92 | 1019.2 |
| 20260831022348 | 22 | 233 | 0.0 | 0.0 | 0.00 | 0.00 | 0.00 | 92 | 1019.5 |
| 20260831021841 | 22 | 233 | 0.0 | 3.2 | 0.00 | 0.00 | 0.00 | 92 | 1019.5 |
| 20260831021555 | 22 | 233 | 0.0 | 3.2 | 0.00 | 0.00 | 0.00 | 92 | 1018.4 |
| 20260831021354 | 22 | 233 | 0.0 | 3.2 | 0.00 | 0.00 | 0.00 | 92 | 1019.5 |
| 20260831020846 | 22 | 233 | 1.6 | 3.2 | 0.00 | 0.00 | 0.00 | 92 | 1019.5 |
| 20260831020358 | 22 | 233 | 0.0 | 0.0 | 0.00 | 0.00 | 0.00 | 92 | 1019.5 |
| 20260831020049 | 22 | 233 | 0.0 | 0.0 | 0.00 | 0.00 | 0.00 | 92 | 1018.4 |
| 20260831015848 | 22 | 233 | 0.0 | 0.0 | 0.00 | 0.00 | 0.00 | 92 | 1019.6 |
| 20260831015341 | 22 | 233 | 0.0 | 0.0 | 0.00 | 0.00 | 0.00 | 92 | 1019.6 |
| 20260831014855 | 22 | 233 | 0.0 | 0.0 | 0.00 | 0.00 | 0.00 | 92 | 1019.6 |
| 20260831014508 | 22 | 233 | 0.0 | 0.0 | 0.00 | 0.00 | 0.00 | 92 | 1018.5 |
| 20260831014407 | 22 | 233 | 0.0 | 0.0 | 0.00 | 0.00 | 0.00 | 92 | 1019.6 |
| 20260831013838 | 22 | 233 | 0.0 | 0.0 | 0.00 | 0.00 | 0.00 | 92 | 1019.6 |
| 20260831013411 | 22 | 233 | 0.0 | 0.0 | 0.00 | 0.00 | 0.00 | 93 | 1019.6 |
| 20260831013043 | 22 | 233 | 0.0 | 0.0 | 0.00 | 0.00 | 0.00 | 93 | 1018.5 |
| 20260831012842 | 22 | 233 | 0.0 | 0.0 | 0.00 | 0.00 | 0.00 | 92 | 1019.5 |
| 20260831012414 | 22 | 233 | 0.0 | 0.0 | 0.00 | 0.00 | 0.00 | 92 | 1019.5 |
| 20260831011846 | 22 | 233 | 0.0 | 0.0 | 0.00 | 0.00 | 0.00 | 92 | 1019.4 |
| 20260831011539 | 22 | 233 | 0.0 | 0.0 | 0.00 | 0.00 | 0.00 | 92 | 1018.3 |
| 20260831011337 | 22 | 233 | 0.0 | 0.0 | 0.00 | 0.00 | 0.00 | 92 | 1019.3 |
| 20260831010851 | 22 | 233 | 0.0 | 0.0 | 0.00 | 0.00 | 0.00 | 92 | 1019.3 |
| 20260831010405 | 22 | 233 | 0.0 | 0.0 | 0.00 | 0.00 | 0.00 | 91 | 1019.3 |
| 20260831010101 | 22 | 233 | 0.0 | 0.0 | 0.00 | 0.00 | 0.00 | 91 | 1018.2 |
| 20260831005853 | 22 | 233 | 0.0 | 0.0 | 0.00 | 0.00 | 0.00 | 91 | 1019.2 |
| 20260831005406 | 22 | 233 | 0.0 | 0.0 | 0.00 | 0.00 | 0.00 | 91 | 1019.1 |
| 20260831004838 | 22 | 233 | 0.0 | 1.6 | 0.00 | 0.00 | 0.00 | 91 | 1019.0 |
| 20260831004553 | 22 | 233 | 0.0 | 1.6 | 0.00 | 0.00 | 0.00 | 91 | 1017.8 |
| 20260831004350 | 22 | 233 | 0.0 | 1.6 | 0.00 | 0.00 | 0.00 | 91 | 1018.8 |
| 20260831003846 | 22 | 233 | 0.0 | 0.0 | 0.00 | 0.00 | 0.00 | 91 | 1018.7 |
| 20260831003338 | 22 | 233 | 0.0 | 0.0 | 0.00 | 0.00 | 0.00 | 90 | 1018.6 |
| 20260831003051 | 22 | 233 | 0.0 | 0.0 | 0.00 | 0.00 | 0.00 | 90 | 1017.4 |
| 20260831002849 | 22 | 233 | 0.0 | 0.0 | 0.00 | 0.00 | 0.00 | 90 | 1018.5 |
| 20260831002341 | 23 | 233 | 0.0 | 0.0 | 0.00 | 0.00 | 0.00 | 90 | 1018.5 |
| 20260831001854 | 23 | 234 | 0.0 | 0.0 | 0.00 | 0.00 | 0.00 | 90 | 1018.4 |
| 20260831001548 | 22 | 234 | 0.0 | 0.0 | 0.00 | 0.00 | 0.00 | 90 | 1017.3 |
| 20260831001348 | 23 | 234 | 0.0 | 0.0 | 0.00 | 0.00 | 0.00 | 89 | 1018.4 |
| 20260831000839 | 23 | 234 | 0.0 | 0.0 | 0.00 | 0.00 | 0.00 | 89 | 1018.3 |
| 20260831000355 | 23 | 234 | 0.0 | 0.0 | 0.00 | 0.00 | 0.00 | 89 | 1018.1 |
| 20260831000056 | 23 | 234 | 0.0 | 0.0 | 0.00 | 0.00 | 0.00 | 88 | 1017.0 |
| 20260830235842 | 23 | 234 | 0.0 | 0.0 | 0.00 | 0.00 | 0.00 | 88 | 1018.1 |
| 20260830235415 | 23 | 234 | 0.0 | 0.0 | 0.00 | 0.00 | 0.00 | 88 | 1018.0 |
| 20260830234846 | 23 | 234 | 0.0 | 0.0 | 0.00 | 0.00 | 0.00 | 88 | 1017.9 |
| 20260830234546 | 23 | 234 | 0.0 | 0.0 | 0.00 | 0.00 | 0.00 | 88 | 1016.7 |
| 20260830234340 | 23 | 234 | 0.0 | 0.0 | 0.00 | 0.00 | 0.00 | 88 | 1017.8 |
| 20260830233853 | 24 | 234 | 0.0 | 0.0 | 0.00 | 0.00 | 0.00 | 88 | 1017.7 |
| 20260830233346 | 24 | 234 | 0.0 | 0.0 | 0.00 | 0.00 | 0.00 | 87 | 1017.8 |
| 20260830233037 | 23 | 234 | 0.0 | 0.0 | 0.00 | 0.00 | 0.00 | 86 | 1016.7 |
| 20260830232836 | 24 | 234 | 0.0 | 0.0 | 0.00 | 0.00 | 0.00 | 86 | 1017.9 |
| 20260830232350 | 24 | 234 | 0.0 | 0.0 | 0.00 | 0.00 | 0.00 | 86 | 1017.9 |
| 20260830231843 | 25 | 234 | 0.0 | 0.0 | 0.00 | 0.00 | 0.00 | 85 | 1017.9 |
| 20260830231537 | 24 | 234 | 0.0 | 0.0 | 0.00 | 0.00 | 0.00 | 85 | 1016.8 |
| 20260830231337 | 25 | 234 | 0.0 | 0.0 | 0.00 | 0.00 | 0.00 | 84 | 1017.9 |
| 20260830230850 | 25 | 234 | 0.0 | 0.0 | 0.00 | 0.00 | 0.00 | 84 | 1018.0 |
| 20260830230345 | 25 | 234 | 0.0 | 0.0 | 0.00 | 0.00 | 0.00 | 83 | 1018.1 |
| 20260830230057 | 25 | 234 | 0.0 | 0.0 | 0.00 | 0.00 | 0.00 | 83 | 1016.9 |
| 20260830225851 | 25 | 234 | 0.0 | 0.0 | 0.00 | 0.00 | 0.00 | 83 | 1018.1 |
| 20260830225344 | 25 | 234 | 0.0 | 1.6 | 0.00 | 0.00 | 0.00 | 83 | 1018.0 |
| 20260830224858 | 25 | 234 | 0.0 | 1.6 | 0.00 | 0.00 | 0.00 | 82 | 1018.0 |
| 20260830224552 | 25 | 234 | 0.0 | 1.6 | 0.00 | 0.00 | 0.00 | 81 | 1016.9 |
| 20260830224349 | 25 | 234 | 0.0 | 1.6 | 0.00 | 0.00 | 0.00 | 80 | 1018.0 |
| 20260830223340 | 26 | 234 | 0.0 | 1.6 | 0.00 | 0.00 | 0.00 | 79 | 1018.1 |
| 20260830223102 | 26 | 234 | 0.0 | 6.4 | 0.00 | 0.00 | 0.00 | 80 | 1017.0 |
| 20260830222853 | 26 | 234 | 0.0 | 6.4 | 0.00 | 0.00 | 0.00 | 79 | 1018.1 |
| 20260830222345 | 27 | 234 | 3.2 | 6.4 | 0.00 | 0.00 | 0.00 | 73 | 1018.1 |
| 20260830221838 | 26 | 231 | 1.6 | 6.4 | 0.00 | 0.00 | 0.00 | 73 | 1018.1 |
| 20260830221607 | 26 | 194 | 0.0 | 3.2 | 0.00 | 0.00 | 0.00 | 78 | 1017.0 |
| 20260830221350 | 26 | 194 | 0.0 | 3.2 | 0.00 | 0.00 | 0.00 | 78 | 1018.1 |
| 20260830220843 | 26 | 194 | 1.6 | 3.2 | 0.00 | 0.00 | 0.00 | 75 | 1018.1 |
| 20260830220356 | 27 | 192 | 1.6 | 4.8 | 0.00 | 0.00 | 0.00 | 72 | 1018.0 |
| 20260830220047 | 27 | 192 | 1.6 | 4.8 | 0.00 | 0.00 | 0.00 | 71 | 1016.9 |
| 20260830215846 | 27 | 294 | 1.6 | 3.2 | 0.00 | 0.00 | 0.00 | 76 | 1018.0 |
| 20260830215339 | 27 | 208 | 0.0 | 4.8 | 0.00 | 0.00 | 0.00 | 75 | 1018.0 |
| 20260830214852 | 27 | 242 | 1.6 | 4.8 | 0.00 | 0.00 | 0.00 | 72 | 1018.1 |
| 20260830214545 | 27 | 160 | 1.6 | 4.8 | 0.00 | 0.00 | 0.00 | 72 | 1016.9 |
| 20260830214345 | 27 | 204 | 0.0 | 3.2 | 0.00 | 0.00 | 0.00 | 77 | 1018.0 |
| 20260830213857 | 27 | 204 | 0.0 | 4.8 | 0.00 | 0.00 | 0.00 | 72 | 1018.0 |
| 20260830213349 | 27 | 204 | 1.6 | 4.8 | 0.00 | 0.00 | 0.00 | 72 | 1018.0 |
| 20260830213003 | 27 | 190 | 0.0 | 6.4 | 0.00 | 0.00 | 0.00 | 75 | 1016.9 |
| 20260830212902 | 27 | 190 | 1.6 | 6.4 | 0.00 | 0.00 | 0.00 | 73 | 1018.0 |
| 20260830212354 | 27 | 211 | 1.6 | 6.4 | 0.00 | 0.00 | 0.00 | 74 | 1018.0 |
| 20260830211906 | 27 | 159 | 0.0 | 1.6 | 0.00 | 0.00 | 0.00 | 72 | 1017.9 |
| 20260830211559 | 26 | 159 | 0.0 | 1.6 | 0.00 | 0.00 | 0.00 | 73 | 1016.8 |
| 20260830211358 | 26 | 159 | 0.0 | 1.6 | 0.00 | 0.00 | 0.00 | 74 | 1017.8 |
| 20260830210850 | 26 | 159 | 0.0 | 1.6 | 0.00 | 0.00 | 0.00 | 75 | 1017.7 |
| 20260830210343 | 27 | 159 | 0.0 | 1.6 | 0.00 | 0.00 | 0.00 | 74 | 1017.7 |
| 20260830210053 | 27 | 159 | 0.0 | 1.6 | 0.00 | 0.00 | 0.00 | 73 | 1016.7 |
| 20260830205851 | 27 | 159 | 0.0 | 0.0 | 0.00 | 0.00 | 0.00 | 72 | 1017.8 |
| 20260830205402 | 27 | 159 | 0.0 | 0.0 | 0.00 | 0.00 | 0.00 | 71 | 1017.9 |
| 20260830204853 | 27 | 159 | 0.0 | 1.6 | 0.00 | 0.00 | 0.00 | 70 | 1017.8 |
| 20260830204546 | 27 | 159 | 0.0 | 3.2 | 0.00 | 0.00 | 0.00 | 68 | 1016.8 |
| 20260830204346 | 28 | 159 | 0.0 | 3.2 | 0.00 | 0.00 | 0.00 | 68 | 1017.9 |
| 20260830203838 | 27 | 159 | 1.6 | 3.2 | 0.00 | 0.00 | 0.00 | 69 | 1018.0 |
| 20260830203350 | 28 | 107 | 0.0 | 3.2 | 0.00 | 0.00 | 0.00 | 65 | 1018.0 |
| 20260830203050 | 28 | 107 | 0.0 | 3.2 | 0.00 | 0.00 | 0.00 | 66 | 1016.9 |
| 20260830202841 | 28 | 107 | 0.0 | 3.2 | 0.00 | 0.00 | 0.00 | 63 | 1018.1 |
| 20260830202355 | 28 | 174 | 1.6 | 4.8 | 0.00 | 0.00 | 0.00 | 61 | 1018.1 |
| 20260830201847 | 28 | 133 | 3.2 | 4.8 | 0.00 | 0.00 | 0.00 | 63 | 1018.1 |
| 20260830201622 | 28 | 146 | 1.6 | 4.8 | 0.00 | 0.00 | 0.00 | 62 | 1017.0 |
| 20260830201338 | 28 | 146 | 1.6 | 4.8 | 0.00 | 0.00 | 0.00 | 61 | 1018.1 |
| 20260830200850 | 28 | 215 | 1.6 | 4.8 | 0.00 | 0.00 | 0.00 | 62 | 1018.2 |
| 20260830200348 | 28 | 121 | 1.6 | 3.2 | 0.00 | 0.00 | 0.00 | 61 | 1018.2 |
| 20260830200053 | 28 | 209 | 0.0 | 8.0 | 0.00 | 0.00 | 0.00 | 63 | 1017.1 |
| 20260830195838 | 28 | 290 | 1.6 | 8.0 | 0.00 | 0.00 | 0.00 | 62 | 1018.2 |
| 20260830195350 | 28 | 233 | 0.0 | 8.0 | 0.00 | 0.00 | 0.00 | 65 | 1018.1 |
| 20260830194843 | 29 | 116 | 1.6 | 4.8 | 0.00 | 0.00 | 0.00 | 64 | 1018.1 |
| 20260830194538 | 30 | 197 | 0.0 | 3.2 | 0.00 | 0.00 | 0.00 | 62 | 1017.0 |
| 20260830194337 | 30 | 197 | 0.0 | 4.8 | 0.00 | 0.00 | 0.00 | 58 | 1018.1 |
| 20260830193910 | 31 | 123 | 0.0 | 9.7 | 0.00 | 0.00 | 0.00 | 53 | 1018.1 |
| 20260830193344 | 31 | 96 | 3.2 | 9.7 | 0.00 | 0.00 | 0.00 | 52 | 1018.0 |
| 20260830193037 | 31 | 144 | 1.6 | 8.0 | 0.00 | 0.00 | 0.00 | 53 | 1016.9 |
| 20260830192837 | 32 | 165 | 3.2 | 8.0 | 0.00 | 0.00 | 0.00 | 53 | 1018.1 |
| 20260830192350 | 32 | 183 | 3.2 | 6.4 | 0.00 | 0.00 | 0.00 | 51 | 1018.1 |
| 20260830191903 | 32 | 348 | 0.0 | 4.8 | 0.00 | 0.00 | 0.00 | 55 | 1018.1 |
| 20260830191602 | 31 | 348 | 1.6 | 4.8 | 0.00 | 0.00 | 0.00 | 53 | 1017.0 |
| 20260830191355 | 32 | 348 | 1.6 | 4.8 | 0.00 | 0.00 | 0.00 | 53 | 1018.3 |
| 20260830190848 | 32 | 194 | 1.6 | 11.3 | 0.00 | 0.00 | 0.00 | 53 | 1018.2 |
| 20260830190341 | 32 | 240 | 4.8 | 11.3 | 0.00 | 0.00 | 0.00 | 52 | 1018.3 |
| 20260830190051 | 32 | 242 | 3.2 | 8.0 | 0.00 | 0.00 | 0.00 | 52 | 1017.4 |
| 20260830185851 | 32 | 182 | 3.2 | 8.0 | 0.00 | 0.00 | 0.00 | 53 | 1018.5 |